Location: Gulgong NSW 2852, Australia
(32.2976°S, 149.5548°E)
Time: 08:46:06
(UTC+11:00)

ISS - Pass Details

Date: 13 December 2021
Orbit: 414 x 422 km, 51.6° (Epoch: 16 January)

Event Time Altitude Azimuth Distance (km) Brightness Sun altitude
Rises 21:31:26 0° 306° (NW) 2,352 0.2 -16.1°
Reaches altitude 10° 21:33:33 10° 300° (WNW) 1,494 -0.8 -16.4°
Maximum altitude 21:36:50 52° 222° (SW) 527 -2.9 -16.9°
Drops below altitude 10° 21:40:10 10° 144° (SE) 1,508 -0.9 -17.4°
Sets 21:42:18 0° 139° (SE) 2,377 0.1 -17.8°
